Location: Czekanka
(50.4925°N, 19.2643°E)
Time: 12:21:37
(UTC+00:00)

FENGYUN 1C DEB - Pass Details

Date: 20 November 2025
Orbit: 800 x 866 km, 98.6° (Epoch: 04 December)

Event Time Altitude Azimuth Distance (km) Brightness Sun altitude
Rises 04:55:02 0° 5° (N) 3,336 ? -11.0°
Reaches altitude 10° 04:57:58 10° 349° (N) 2,394 ? -10.6°
Maximum altitude 05:01:38 20° 305° (NW) 1,804 ? -10.1°
Drops below altitude 10° 05:05:18 10° 260° (W) 2,377 ? -9.5°
Sets 05:08:12 0° 244° (WSW) 3,304 ? -9.1°
